Time,TemperatureF,DewpointF,PressureIn,WindDirection,WindDirectionDegrees,WindSpeedMPH,WindSpeedGustMPH,Humidity,HourlyPrecipIn,Conditions,Clouds,dailyrainin,SoftwareType,DateUTC
2013-04-04 00:02:00,40.0,30.0,30.06,SSW,195,17.0,29.0,66,0.00,,,0.00,,2013-04-04 05:02:00,
2013-04-04 00:13:00,40.0,30.0,30.06,SSW,195,17.0,29.0,66,0.00,,,0.00,,2013-04-04 05:13:00,
2013-04-04 00:23:00,40.0,29.0,30.06,SW,225,19.0,26.0,65,0.00,,,0.00,,2013-04-04 05:23:00,
2013-04-04 00:32:00,40.0,29.0,30.06,SW,221,19.0,27.0,64,0.00,,,0.00,,2013-04-04 05:32:00,
2013-04-04 00:42:00,40.0,29.0,30.06,SW,221,19.0,27.0,64,0.00,,,0.00,,2013-04-04 05:42:00,
2013-04-04 00:52:00,40.0,28.0,30.05,SSW,211,21.0,34.0,61,0.00,,,0.00,,2013-04-04 05:52:00,
2013-04-04 01:02:00,40.0,28.0,30.05,SSW,211,21.0,34.0,61,0.00,,,0.00,,2013-04-04 06:02:00,
2013-04-04 01:12:00,40.0,28.0,30.05,SSW,211,21.0,34.0,61,0.00,,,0.00,,2013-04-04 06:12:00,
2013-04-04 01:22:00,40.0,28.0,30.05,SW,229,23.0,29.0,63,0.00,,,0.00,,2013-04-04 06:22:00,
2013-04-04 01:32:00,40.0,28.0,30.05,SW,229,19.0,28.0,63,0.00,,,0.00,,2013-04-04 06:32:00,
2013-04-04 01:42:00,40.0,28.0,30.05,SW,229,19.0,28.0,63,0.00,,,0.00,,2013-04-04 06:42:00,
2013-04-04 01:52:00,40.0,29.0,30.06,SW,229,20.0,28.0,64,0.00,,,0.00,,2013-04-04 06:52:00,
2013-04-04 02:02:00,40.0,30.0,30.05,SW,217,16.0,25.0,66,0.00,,,0.00,,2013-04-04 07:02:00,
2013-04-04 02:12:00,40.0,30.0,30.05,SW,217,16.0,25.0,66,0.00,,,0.00,,2013-04-04 07:12:00,
2013-04-04 02:22:00,40.0,30.0,30.05,SW,217,16.0,25.0,66,0.00,,,0.00,,2013-04-04 07:22:00,
2013-04-04 02:32:00,40.0,30.0,30.03,SW,219,19.0,30.0,66,0.00,,,0.00,,2013-04-04 07:32:00,
2013-04-04 02:43:00,40.0,30.0,30.03,SW,219,19.0,30.0,66,0.00,,,0.00,,2013-04-04 07:43:00,
2013-04-04 02:53:00,40.0,30.0,30.07,WSW,250,11.0,26.0,67,0.00,,,0.00,,2013-04-04 07:53:00,
2013-04-04 03:02:00,39.0,30.0,30.04,WSW,243,17.0,22.0,70,0.00,,,0.00,,2013-04-04 08:02:00,
2013-04-04 03:12:00,39.0,30.0,30.04,WSW,243,17.0,22.0,70,0.00,,,0.00,,2013-04-04 08:12:00,
2013-04-04 03:22:00,39.0,30.0,30.03,WSW,248,12.0,20.0,71,0.00,,,0.00,,2013-04-04 08:22:00,
2013-04-04 03:32:00,39.0,30.0,30.03,WSW,248,12.0,20.0,71,0.00,,,0.00,,2013-04-04 08:32:00,
2013-04-04 03:43:00,39.0,30.0,30.03,WSW,248,12.0,20.0,71,0.00,,,0.00,,2013-04-04 08:43:00,
2013-04-04 03:52:00,39.0,30.0,30.03,SW,229,13.0,18.0,70,0.00,,,0.00,,2013-04-04 08:52:00,
2013-04-04 04:02:00,39.0,30.0,30.02,SW,215,15.0,18.0,71,0.00,,,0.00,,2013-04-04 09:02:00,
2013-04-04 04:12:00,39.0,30.0,30.02,SW,215,15.0,18.0,71,0.00,,,0.00,,2013-04-04 09:12:00,
2013-04-04 04:22:00,39.0,30.0,30.03,SW,229,11.0,14.0,71,0.00,,,0.00,,2013-04-04 09:22:00,
2013-04-04 04:33:00,38.0,30.0,30.03,SW,226,8.0,12.0,72,0.00,,,0.00,,2013-04-04 09:33:00,
2013-04-04 04:43:00,38.0,30.0,30.03,SW,226,8.0,12.0,72,0.00,,,0.00,,2013-04-04 09:43:00,
2013-04-04 04:53:00,38.0,30.0,30.03,SW,226,8.0,12.0,72,0.00,,,0.00,,2013-04-04 09:53:00,
2013-04-04 05:04:00,39.0,30.0,30.02,SW,225,12.0,16.0,71,0.00,,,0.00,,2013-04-04 10:04:00,
2013-04-04 05:12:00,39.0,30.0,30.02,SW,225,12.0,16.0,71,0.00,,,0.00,,2013-04-04 10:12:00,
2013-04-04 05:24:00,40.0,30.0,30.01,SW,232,14.0,19.0,67,0.00,,,0.00,,2013-04-04 10:24:00,
2013-04-04 05:33:00,40.0,30.0,30.01,SW,235,17.0,21.0,68,0.00,,,0.00,,2013-04-04 10:33:00,
2013-04-04 05:42:00,40.0,30.0,30.01,SW,235,17.0,21.0,68,0.00,,,0.00,,2013-04-04 10:42:00,
2013-04-04 05:53:00,39.0,30.0,30.00,WSW,238,15.0,19.0,70,0.00,,,0.00,,2013-04-04 10:53:00,
2013-04-04 06:02:00,39.0,30.0,30.00,WSW,238,15.0,19.0,70,0.00,,,0.00,,2013-04-04 11:02:00,
2013-04-04 06:12:00,39.0,30.0,30.00,WSW,238,15.0,19.0,70,0.00,,,0.00,,2013-04-04 11:12:00,
2013-04-04 06:22:00,39.0,30.0,30.00,SW,235,15.0,19.0,71,0.00,,,0.00,,2013-04-04 11:22:00,
2013-04-04 06:32:00,39.0,30.0,30.00,SW,235,15.0,19.0,71,0.00,,,0.00,,2013-04-04 11:32:00,
2013-04-04 06:42:00,39.0,30.0,30.00,SW,235,15.0,19.0,71,0.00,,,0.00,,2013-04-04 11:42:00,
2013-04-04 06:53:00,38.0,30.0,30.00,SSW,209,13.0,17.0,74,0.00,,,0.00,,2013-04-04 11:53:00,
2013-04-04 07:02:00,38.0,30.0,30.00,WSW,240,10.0,15.0,74,0.00,,,0.00,,2013-04-04 12:02:00,
2013-04-04 07:12:00,38.0,30.0,30.00,WSW,240,10.0,15.0,74,0.00,,,0.00,,2013-04-04 12:12:00,
2013-04-04 07:22:00,37.0,30.0,30.01,West,269,6.0,11.0,77,0.00,,,0.00,,2013-04-04 12:22:00,
2013-04-04 07:32:00,37.0,30.0,30.01,West,269,6.0,11.0,77,0.00,,,0.00,,2013-04-04 12:32:00,
2013-04-04 07:43:00,37.0,30.0,30.01,West,269,6.0,11.0,77,0.00,,,0.00,,2013-04-04 12:43:00,
2013-04-04 07:52:00,37.0,31.0,30.02,WNW,291,7.0,11.0,78,0.00,,,0.00,,2013-04-04 12:52:00,
2013-04-04 08:02:00,37.0,31.0,30.02,West,260,7.0,10.0,79,0.00,,,0.00,,2013-04-04 13:02:00,
2013-04-04 08:12:00,37.0,31.0,30.02,West,260,7.0,10.0,79,0.00,,,0.00,,2013-04-04 13:12:00,
2013-04-04 08:22:00,37.0,32.0,30.03,West,281,6.0,12.0,81,0.00,,,0.00,,2013-04-04 13:22:00,
2013-04-04 08:32:00,37.0,32.0,30.03,West,271,5.0,8.0,83,0.00,,,0.00,,2013-04-04 13:32:00,
2013-04-04 08:42:00,37.0,32.0,30.03,West,271,5.0,8.0,83,0.00,,,0.00,,2013-04-04 13:42:00,
2013-04-04 08:53:00,37.0,32.0,30.03,West,271,5.0,8.0,83,0.00,,,0.00,,2013-04-04 13:53:00,
2013-04-04 09:03:00,38.0,34.0,30.03,West,281,6.0,9.0,85,0.00,,,0.00,,2013-04-04 14:03:00,
2013-04-04 09:12:00,38.0,34.0,30.03,West,281,6.0,9.0,85,0.00,,,0.00,,2013-04-04 14:12:00,
2013-04-04 09:22:00,37.0,33.0,30.04,WNW,300,7.0,13.0,85,0.00,,,0.00,,2013-04-04 14:22:00,
2013-04-04 09:32:00,38.0,34.0,30.04,West,281,9.0,14.0,84,0.00,,,0.00,,2013-04-04 14:32:00,
2013-04-04 09:42:00,38.0,34.0,30.04,West,281,9.0,14.0,84,0.00,,,0.00,,2013-04-04 14:42:00,
2013-04-04 09:52:00,38.0,33.0,30.03,NW,317,10.0,15.0,82,0.00,,,0.00,,2013-04-04 14:52:00,
2013-04-04 10:02:00,38.0,33.0,30.03,NW,317,10.0,15.0,82,0.00,,,0.00,,2013-04-04 15:02:00,
2013-04-04 10:12:00,38.0,33.0,30.03,NW,317,10.0,15.0,82,0.00,,,0.00,,2013-04-04 15:12:00,
2013-04-04 10:23:00,39.0,33.0,30.04,NW,308,11.0,15.0,79,0.00,,,0.00,,2013-04-04 15:23:00,
2013-04-04 10:33:00,40.0,33.0,30.03,NW,316,13.0,17.0,77,0.00,,,0.00,,2013-04-04 15:33:00,
2013-04-04 10:43:00,40.0,33.0,30.03,NW,316,13.0,17.0,77,0.00,,,0.00,,2013-04-04 15:43:00,
2013-04-04 10:53:00,41.0,34.0,30.03,NW,312,14.0,19.0,75,0.00,,,0.00,,2013-04-04 15:53:00,
2013-04-04 11:03:00,41.0,34.0,30.04,NW,313,14.0,19.0,75,0.00,,,0.00,,2013-04-04 16:03:00,
2013-04-04 11:12:00,41.0,34.0,30.04,NW,313,14.0,19.0,75,0.00,,,0.00,,2013-04-04 16:12:00,
2013-04-04 11:24:00,41.0,34.0,30.04,NW,313,14.0,19.0,75,0.00,,,0.00,,2013-04-04 16:24:00,
2013-04-04 11:32:00,42.0,34.0,30.04,NW,312,14.0,19.0,74,0.00,,,0.00,,2013-04-04 16:32:00,
2013-04-04 11:42:00,42.0,34.0,30.04,NW,312,14.0,19.0,74,0.00,,,0.00,,2013-04-04 16:42:00,
2013-04-04 11:54:00,42.0,34.0,30.05,WNW,287,14.0,19.0,73,0.00,,,0.00,,2013-04-04 16:54:00,
2013-04-04 12:03:00,43.0,34.0,30.05,WNW,302,11.0,18.0,70,0.00,,,0.00,,2013-04-04 17:03:00,
2013-04-04 12:13:00,43.0,34.0,30.05,WNW,302,11.0,18.0,70,0.00,,,0.00,,2013-04-04 17:13:00,
2013-04-04 12:22:00,44.0,36.0,30.05,WNW,295,11.0,18.0,73,0.00,,,0.00,,2013-04-04 17:22:00,
2013-04-04 12:33:00,44.0,36.0,30.05,WNW,295,11.0,18.0,73,0.00,,,0.00,,2013-04-04 17:33:00,
2013-04-04 12:42:00,44.0,36.0,30.05,WNW,295,11.0,18.0,73,0.00,,,0.00,,2013-04-04 17:42:00,
2013-04-04 12:52:00,44.0,36.0,30.05,WNW,295,11.0,18.0,73,0.00,,,0.00,,2013-04-04 17:52:00,
2013-04-04 13:02:00,45.0,35.0,30.06,NNW,335,10.0,20.0,67,0.00,,,0.00,,2013-04-04 18:02:00,
2013-04-04 13:12:00,45.0,35.0,30.06,NNW,335,10.0,20.0,67,0.00,,,0.00,,2013-04-04 18:12:00,
2013-04-04 13:23:00,46.0,32.0,30.06,NNW,342,10.0,16.0,58,0.00,,,0.00,,2013-04-04 18:23:00,
2013-04-04 13:32:00,46.0,32.0,30.06,North,11,11.0,16.0,59,0.00,,,0.00,,2013-04-04 18:32:00,
2013-04-04 13:43:00,46.0,32.0,30.06,North,11,11.0,16.0,59,0.00,,,0.00,,2013-04-04 18:43:00,
2013-04-04 13:52:00,46.0,29.0,30.06,NE,39,7.0,18.0,51,0.00,,,0.00,,2013-04-04 18:52:00,
2013-04-04 14:02:00,46.0,29.0,30.06,NE,39,7.0,18.0,51,0.00,,,0.00,,2013-04-04 19:02:00,
2013-04-04 14:12:00,46.0,29.0,30.06,NE,39,7.0,18.0,51,0.00,,,0.00,,2013-04-04 19:12:00,
2013-04-04 14:22:00,47.0,26.0,30.06,NNW,340,11.0,21.0,44,0.00,,,0.00,,2013-04-04 19:22:00,
2013-04-04 14:32:00,47.0,28.0,30.05,NW,322,13.0,21.0,47,0.00,,,0.00,,2013-04-04 19:32:00,
2013-04-04 14:42:00,47.0,28.0,30.05,NW,322,13.0,21.0,47,0.00,,,0.00,,2013-04-04 19:42:00,
2013-04-04 14:52:00,47.0,29.0,30.05,NNW,338,16.0,20.0,49,0.00,,,0.00,,2013-04-04 19:52:00,
2013-04-04 15:03:00,47.0,32.0,30.06,NNW,328,14.0,23.0,55,0.00,,,0.00,,2013-04-04 20:03:00,
2013-04-04 15:12:00,47.0,32.0,30.06,NNW,328,14.0,23.0,55,0.00,,,0.00,,2013-04-04 20:12:00,
2013-04-04 15:22:00,47.0,31.0,30.05,NW,320,15.0,22.0,53,0.00,,,0.00,,2013-04-04 20:22:00,
2013-04-04 15:32:00,47.0,31.0,30.05,NW,320,15.0,22.0,53,0.00,,,0.00,,2013-04-04 20:32:00,
2013-04-04 15:42:00,47.0,31.0,30.05,NW,320,15.0,22.0,53,0.00,,,0.00,,2013-04-04 20:42:00,
2013-04-04 15:53:00,47.0,31.0,30.05,NW,320,15.0,22.0,53,0.00,,,0.00,,2013-04-04 20:53:00,
2013-04-04 16:02:00,47.0,29.0,30.05,NNW,335,16.0,23.0,49,0.00,,,0.00,,2013-04-04 21:02:00,
2013-04-04 16:12:00,47.0,29.0,30.05,NNW,335,16.0,23.0,49,0.00,,,0.00,,2013-04-04 21:12:00,
2013-04-04 16:22:00,47.0,31.0,30.05,NW,304,14.0,23.0,53,0.00,,,0.00,,2013-04-04 21:22:00,
2013-04-04 16:32:00,47.0,28.0,30.05,NW,317,15.0,23.0,47,0.00,,,0.00,,2013-04-04 21:32:00,
2013-04-04 16:43:00,47.0,28.0,30.05,NW,317,15.0,23.0,47,0.00,,,0.00,,2013-04-04 21:43:00,
2013-04-04 16:53:00,47.0,28.0,30.05,NW,317,15.0,23.0,47,0.00,,,0.00,,2013-04-04 21:53:00,
2013-04-04 17:03:00,47.0,27.0,30.04,NNE,29,18.0,21.0,46,0.00,,,0.00,,2013-04-04 22:03:00,
2013-04-04 17:12:00,47.0,27.0,30.04,NNE,29,18.0,21.0,46,0.00,,,0.00,,2013-04-04 22:12:00,
2013-04-04 17:23:00,46.0,26.0,30.05,NW,324,15.0,22.0,45,0.00,,,0.00,,2013-04-04 22:23:00,
2013-04-04 17:33:00,46.0,28.0,30.05,NNW,331,14.0,19.0,49,0.00,,,0.00,,2013-04-04 22:33:00,
2013-04-04 17:42:00,46.0,28.0,30.05,NNW,331,14.0,19.0,49,0.00,,,0.00,,2013-04-04 22:42:00,
2013-04-04 17:53:00,46.0,28.0,30.05,NNW,331,14.0,19.0,49,0.00,,,0.00,,2013-04-04 22:53:00,
2013-04-04 18:03:00,46.0,28.0,30.05,NNW,331,14.0,19.0,49,0.00,,,0.00,,2013-04-04 23:03:00,
2013-04-04 18:12:00,46.0,28.0,30.05,NNW,331,14.0,19.0,49,0.00,,,0.00,,2013-04-04 23:12:00,
2013-04-04 18:22:00,46.0,30.0,30.06,NW,315,14.0,21.0,53,0.00,,,0.00,,2013-04-04 23:22:00,
2013-04-04 18:32:00,45.0,30.0,30.06,NW,316,15.0,20.0,55,0.00,,,0.00,,2013-04-04 23:32:00,
2013-04-04 18:42:00,45.0,30.0,30.06,NW,316,15.0,20.0,55,0.00,,,0.00,,2013-04-04 23:42:00,
2013-04-04 18:52:00,44.0,29.0,30.06,WNW,300,12.0,17.0,56,0.00,,,0.00,,2013-04-04 23:52:00,
2013-04-04 19:02:00,44.0,29.0,30.07,WNW,301,12.0,19.0,56,0.00,,,0.00,,2013-04-05 00:02:00,
2013-04-04 19:12:00,44.0,29.0,30.07,WNW,301,12.0,19.0,56,0.00,,,0.00,,2013-04-05 00:12:00,
2013-04-04 19:22:00,44.0,29.0,30.07,WNW,301,12.0,19.0,56,0.00,,,0.00,,2013-04-05 00:22:00,
2013-04-04 19:32:00,43.0,28.0,30.07,NW,319,12.0,16.0,56,0.00,,,0.00,,2013-04-05 00:32:00,
2013-04-04 19:42:00,43.0,28.0,30.07,NW,319,12.0,16.0,56,0.00,,,0.00,,2013-04-05 00:42:00,
2013-04-04 19:52:00,42.0,27.0,30.07,NW,321,11.0,14.0,56,0.00,,,0.00,,2013-04-05 00:52:00,
2013-04-04 20:02:00,41.0,29.0,30.08,NNW,329,9.0,15.0,61,0.00,,,0.00,,2013-04-05 01:02:00,
2013-04-04 20:12:00,41.0,29.0,30.08,NNW,329,9.0,15.0,61,0.00,,,0.00,,2013-04-05 01:12:00,
2013-04-04 20:22:00,39.0,28.0,30.08,WNW,300,8.0,11.0,64,0.00,,,0.00,,2013-04-05 01:22:00,
2013-04-04 20:32:00,38.0,27.0,30.09,NW,321,8.0,12.0,65,0.00,,,0.00,,2013-04-05 01:32:00,
2013-04-04 20:42:00,38.0,27.0,30.09,NW,321,8.0,12.0,65,0.00,,,0.00,,2013-04-05 01:42:00,
2013-04-04 20:53:00,38.0,27.0,30.09,NW,321,8.0,12.0,65,0.00,,,0.00,,2013-04-05 01:53:00,
2013-04-04 21:03:00,38.0,27.0,30.09,NNW,332,8.0,11.0,65,0.00,,,0.00,,2013-04-05 02:03:00,
2013-04-04 21:12:00,38.0,27.0,30.09,NNW,332,8.0,11.0,65,0.00,,,0.00,,2013-04-05 02:12:00,
2013-04-04 21:22:00,37.0,26.0,30.10,NW,321,9.0,11.0,65,0.00,,,0.00,,2013-04-05 02:22:00,
2013-04-04 21:32:00,37.0,27.0,30.11,NW,320,8.0,12.0,66,0.00,,,0.00,,2013-04-05 02:32:00,
2013-04-04 21:42:00,37.0,27.0,30.11,NW,320,8.0,12.0,66,0.00,,,0.00,,2013-04-05 02:42:00,
2013-04-04 21:52:00,36.0,27.0,30.12,NW,311,8.0,11.0,70,0.00,,,0.00,,2013-04-05 02:52:00,
2013-04-04 22:02:00,36.0,27.0,30.12,NW,311,8.0,11.0,70,0.00,,,0.00,,2013-04-05 03:02:00,
2013-04-04 22:12:00,36.0,27.0,30.12,NW,311,8.0,11.0,70,0.00,,,0.00,,2013-04-05 03:12:00,
2013-04-04 22:22:00,35.0,27.0,30.12,NW,315,5.0,9.0,72,0.00,,,0.00,,2013-04-05 03:22:00,
2013-04-04 22:32:00,34.0,26.0,30.12,NW,308,6.0,8.0,73,0.00,,,0.00,,2013-04-05 03:32:00,
2013-04-04 22:43:00,34.0,26.0,30.12,NW,308,6.0,8.0,73,0.00,,,0.00,,2013-04-05 03:43:00,
2013-04-04 22:53:00,34.0,27.0,30.13,NW,311,5.0,7.0,75,0.00,,,0.00,,2013-04-05 03:53:00,
2013-04-04 23:02:00,33.0,26.0,30.13,NW,316,4.0,6.0,76,0.00,,,0.00,,2013-04-05 04:02:00,
2013-04-04 23:12:00,33.0,26.0,30.13,NW,316,4.0,6.0,76,0.00,,,0.00,,2013-04-05 04:12:00,
2013-04-04 23:22:00,33.0,26.0,30.13,NW,316,4.0,6.0,76,0.00,,,0.00,,2013-04-05 04:22:00,
2013-04-04 23:32:00,33.0,26.0,30.14,NW,319,5.0,7.0,76,0.00,,,0.00,,2013-04-05 04:32:00,
2013-04-04 23:42:00,33.0,26.0,30.14,NW,319,5.0,7.0,76,0.00,,,0.00,,2013-04-05 04:42:00,
2013-04-04 23:52:00,32.0,26.0,30.14,NW,316,6.0,8.0,77,0.00,,,0.00,,2013-04-05 04:52:00,